Location: Shenandoah County Park
(38.9356°N, 78.4524°W)
Time: 05:39:46
(UTC-04:00)

CAS-4B - Visible Passes

Search period start: 20 April 2024 00:00
Search period end: 30 April 2024 00:00
Orbit: 479 x 498 km, 43.0° (Epoch: 19 April)

Date Brightness Start Highest point End Pass type
(mag) Time Alt. Az. Time Alt. Az. Time Alt. Az.
20 Apr ? 03:19:59 12° E 03:19:59 12° E 03:20:19 10° ENE visible
20 Apr ? 04:54:19 34° WNW 04:55:42 57° NNW 04:59:30 10° ENE visible
21 Apr ? 04:29:18 53° NW 04:29:41 57° NNW 04:33:28 10° ENE visible
22 Apr ? 04:04:14 49° NNE 04:04:14 49° NNE 04:07:22 10° ENE visible
22 Apr ? 05:39:19 10° WNW 05:43:00 45° N 05:46:43 10° E visible
23 Apr ? 03:39:07 29° NE 03:39:07 29° NE 03:41:13 10° ENE visible
23 Apr ? 05:13:26 12° WNW 05:16:51 45° N 05:20:33 10° E visible
24 Apr ? 03:13:58 17° ENE 03:13:58 17° ENE 03:15:00 10° ENE visible
24 Apr ? 04:48:17 20° WNW 04:50:38 45° N 04:54:20 10° E visible
25 Apr ? 04:23:09 33° NW 04:24:21 45° N 04:28:03 10° E visible
26 Apr ? 03:58:02 45° N 03:58:02 45° N 04:01:42 10° E visible
26 Apr ? 05:33:26 10° WNW 05:37:16 85° SSW 05:41:06 10° ESE visible
27 Apr ? 03:32:59 30° NE 03:32:59 30° NE 03:35:17 10° E visible
27 Apr ? 05:07:19 12° WNW 05:10:51 85° SSW 05:14:41 10° ESE visible
28 Apr ? 03:08:04 15° ENE 03:08:04 15° ENE 03:08:49 10° ENE visible
28 Apr ? 04:42:25 27° WNW 04:44:24 85° SSW 04:48:12 10° ESE visible
29 Apr ? 04:17:42 81° W 04:17:52 86° SSW 04:21:41 10° ESE visible
